Regional Weather Roundup
Issued by NWS

Home | Current Version | Previous Version | Text Only | Print | Product List | Glossary Off
Versions: 1 2 3 4 5 6 7 8 9 10 11 12 13 14 15 16 17 18 19 20 21 22 23 24 25 26 27 28 29 30 31 32 33 34 35 36 37 38 39 40 41 42 43 44 45 46 47 48 49 50

000
ASUS43 KMPX 031001
RWRMN
WEATHER ROUNDUP FOR MINNESOTA
NATIONAL WEATHER SERVICE TWIN CITIES/CHANHASSEN MN
500 AM CDT TUE MAY 03 2016


NOTE: "FAIR" INDICATES FEW OR NO CLOUDS BELOW 12,000 FEET WITH NO
SIGNIFICANT WEATHER AND/OR OBSTRUCTIONS TO VISIBILITY. N/A MEANS
CURRENT SKY AND/OR WEATHER CONDITIONS ARE NOT AVAILABLE.

MNZ060>063-068>070-031100-
   Twin Cities Metro

CITY           SKY/WX    TMP DP  RH WIND       PRES   REMARKS
TWIN CITIES    CLEAR     49  37  63 SW6       29.95F
ST PAUL        CLEAR     48  39  71 N3        29.96F
CRYSTAL        CLEAR     50  37  61 W5        29.94S
BLAINE         CLEAR     50  39  66 SW5       29.94F
EDEN PRAIRIE   CLEAR     47  37  68 SW6       29.95S
SOUTH ST PAUL  CLEAR     50  37  61 W7        29.95S
LAKE ELMO      FAIR      48  37  66 SW6       29.95F
$$
MNZ001>005-007-008-013>017-022>024-027-028-031100-
   Northwest Minnesota

CITY           SKY/WX    TMP DP  RH WIND       PRES   REMARKS
BEMIDJI        CLOUDY    50  34  55 W10       29.87F
HALLOCK        PTCLDY    52  36  54 W13       29.83F
ROSEAU         MOCLDY    54  39  58 W10G16    29.80F
WARROAD        CLOUDY    52  39  62 W13       29.80F
THIEF RVR FALL PTCLDY    48  34  57 W10       29.88F
CROOKSTON      CLOUDY    52  36  54 W13       29.89F
FOSSTON        CLEAR     46  34  61 SW10      29.90S
DETROIT LAKES  PTCLDY    50  36  57 W6        29.95S
MOORHEAD       PTCLDY    45  36  70 SW6       29.95S
PARK RAPIDS    PTCLDY    46  36  68 W10       29.90F
MAHNOMEN       FAIR      42  34  71 SW7       29.92S
$$
MNZ006-009>011-018-025>026-031100-
   North Central Minnesota

CITY           SKY/WX    TMP DP  RH WIND       PRES   REMARKS
BAUDETTE       CLOUDY    51  34  52 W9        29.78F
FLAG ISLAND    CLOUDY    55  36  47 W15       29.74F
INTL FALLS     CLOUDY    50  31  48 W8        29.76F
WASKISH        PTCLDY    50  43  76 SW10      29.83F
BIG FORK       PTCLDY    48  36  61 SW6       29.83F
LONGVILLE      CLOUDY    39  37  93 CALM      29.88F
GRAND RAPIDS   CLOUDY    52  34  50 W6        29.87F
CRANE LAKE     CLOUDY    50  28  43 SW5       29.78F
ORR            CLOUDY    46  27  46 CALM      29.77F
COOK           CLOUDY    48  30  49 SW7       29.80F
WALKER         FAIR      50  34  53 W8        29.88F
$$
MNZ012-019>021-037-031100-
   Northeast Minnesota

CITY           SKY/WX    TMP DP  RH WIND       PRES   REMARKS
DULUTH         CLOUDY    49  31  49 W14       29.84F
ELY            CLOUDY    46  30  53 SW8       29.79F
HIBBING        CLOUDY    45  32  60 W6        29.83F
EVELETH        CLOUDY    43  32  65 W3        29.83F
DULUTH HARBOR  CLOUDY    45  36  70 SW13      29.84F
TWO HARBORS    CLOUDY    54  36  50 W8G16     29.80F
SILVER BAY     CLOUDY    36  30  80 W5        29.79F
GRAND MARAIS     N/A     40  33  76 W8        29.77F
G MARAIS ARPRT CLOUDY    46  27  46 W6        29.77F
$$
MNZ029>031-032-039>041-046>048-054>057-064-031100-
   West Central Minnesota

CITY           SKY/WX    TMP DP  RH WIND       PRES   REMARKS
FERGUS FALLS   CLEAR     45  37  76 CALM      29.94F
WHEATON        PTCLDY    48  41  76 W5        29.99S
MORRIS         CLOUDY    41  36  81 NW7       29.96S
ALEXANDRIA     CLEAR     44  36  73 W6        29.96S
ELBOW LAKE     FAIR      44  35  72 NW5       29.97S
WADENA         CLOUDY    43  36  75 W7        29.93F
GLENWOOD       PTCLDY    45  37  76 W5        29.96S
APPLETON       CLEAR     45  37  76 W5        29.97F
BENSON         PTCLDY    36  32  87 CALM      29.97S
ORTONVILLE     CLEAR     45  37  76 W5        29.98S
MADISON        CLEAR     41  36  81 W8        29.99S
WILLMAR        FAIR      43  36  75 W5        29.98S
$$
MNZ033>034-036-042>043-049>051-058-059-031100-
   Central Minnesota

CITY           SKY/WX    TMP DP  RH WIND       PRES   REMARKS
ST CLOUD       CLEAR     41  35  79 CALM      29.93F
SAUK CENTRE    FAIR      41  33  74 CALM      29.95F
PAYNESVILLE    CLEAR     40  35  80 W6        29.96S
AITKIN         CLOUDY    50  30  46 SW5       29.88F
PINE RIVER     CLOUDY    46  36  66 CALM      29.93F
BRAINERD       CLOUDY    37  32  82 SW5       29.91F
STAPLES        CLOUDY    39  34  81 W6        29.92F
LONG PRAIRIE   FAIR      37  34  87 CALM      29.95S
LITTLE FALLS   CLOUDY    37  32  81 CALM      29.93F
LITCHFIELD     CLEAR     46  36  66 W5        29.96S
BUFFALO        CLEAR     46  37  72 CALM      29.96S
MAPLE LAKE     CLEAR     48  39  73 W3        29.95F
HUTCHINSON     PTCLDY    44  38  79 SW5       29.98S
$$
MNZ037-044-045-052-053-031100-
   East Central Minnesota

CITY           SKY/WX    TMP DP  RH WIND       PRES   REMARKS
PRINCETON      CLEAR     43  36  75 CALM      29.93F
MORA           CLOUDY    45  34  65 CALM      29.93F
CAMBRIDGE      CLEAR     45  34  65 SW3       29.91F
RUSH CITY      PTCLDY    47  36  66 SW5       29.92F
MOOSE LAKE     CLOUDY    48  32  53 W7        29.86F
HINCKLEY       FAIR      39  34  81 W5        29.91F
CLOQUET        CLOUDY    50  30  46 W9        29.85F
MCGREGOR       PTCLDY    48  32  53 SW3       29.88F
$$
MNZ071>073-080-081-089-090-097-098-031100-
   Southwest Minnesota

CITY           SKY/WX    TMP DP  RH WIND       PRES   REMARKS
MONTEVIDEO     CLEAR     45  37  76 NW7       30.00S
GRANITE FALLS  CLEAR     45  38  78 SW9       30.00S
CANBY          CLEAR     48  42  77 W7        30.01S
REDWOOD FALLS  CLEAR     49  37  63 W10       29.98S
OLIVIA         CLEAR     43  36  75 W6        29.97S
PIPESTONE      CLEAR     43  37  81 CALM      30.01S
WINDOM         CLEAR     43  37  81 CALM      30.01S
WORTHINGTON    CLEAR     43  38  82 SW5       30.03R
JACKSON        CLEAR     43  36  75 SW3       30.02R
TRACY          CLEAR     50  40  67 W8        30.00S
SLAYTON        CLEAR     44  39  84 W6        30.02S
$$
MNZ065>067-074>077-082>085-091>093-031100-
   South Central Minnesota

CITY           SKY/WX    TMP DP  RH WIND       PRES   REMARKS
MANKATO        CLEAR     46  36  66 SW7       29.99S
NEW ULM        PTCLDY    45  39  81 W6        29.99S
ST JAMES       CLEAR     37  36  93 SW6       30.01S
FAIRMONT       CLEAR     45  36  70 W9        30.00S
GLENCOE        CLEAR     48  41  76 SW5       29.96S
OWATONNA       CLEAR     45  37  76 SW6       29.99S
WASECA         CLEAR     39  36  87 SW3       30.01R
ALBERT LEA     CLEAR     46  41  81 CALM      30.00S
$$
MNZ078>079-086>088-094>096-031100-
   Southeast Minnesota

CITY           SKY/WX    TMP DP  RH WIND       PRES   REMARKS
ROCHESTER      CLEAR     45  39  79 SW10      29.99S
RED WING       CLEAR     37  36  93 CALM      29.96S
STANTON        CLEAR     44  37  74 S5        29.96S
DODGE CENTER   PTCLDY    39  36  87 W8        29.98F
WINONA         CLEAR     41  37  87 CALM      29.98S
AUSTIN         CLEAR     43  37  81 SW3       29.99F
PRESTON        CLEAR     46  38  74 W10       29.99F
$$
ABBREVIATIONS USED IN REMARKS
   TC - TEMPERATURES IN CELSIUS
  WCI - WIND CHILL INDEX
   HX - HEAT INDEX
  VSB - VISIBILITY
$$



USA.gov is the U.S. government's official web portal to all federal, state and local government web resources and services.